Miscellaneous Local Product
Issued by NWS North Platte, NE

Home | Current Version | Previous Version | Text Only | Print | Product List | Glossary On
Versions: 1 2 3 4 5 6 7 8 9 10 11 12 13 14 15 16 17 18 19 20 21 22 23 24 25 26 27 28 29 30 31 32 33 34 35 36 37 38 39 40 41 42 43 44 45 46 47 48 49 50
000
AXUS43 KLBF 232210
MISLBF


WESTERN AND NORTH CENTRAL NEBRASKA HOURLY WEATHER ROUNDUP
NATIONAL WEATHER SERVICE NORTH PLATTE NE
500 PM CDT WED APR 23 2014

***STATIONS NOT REPORTING VARIABLES SUCH AS SKY/WEATHER OR
PRESSURE ARE PROVIDED BY THE NEBRASKA DEPARTMENT OF
ROADS...RAWS...AND APRS NETWORKS...AND ARE NOT UNDER
NATIONAL WEATHER SERVICE QUALITY CONTROL***

...OBSERVATIONS IN AND NEAR THE EASTERN PANHANDLE OF NEBRASKA...

CITY           SKY/WX    TMP DP  RH WIND       PRES   REMARKS
PINE RIDGE     SUNNY     67  24  19 W15G32    29.62R
CHADRON        MOSUNNY   66  30  26 NW18G26   29.64R
ALLIANCE       PTSUNNY   64  20  18 NW25G32   29.64R
SIDNEY         SUNNY     65  25  22 N26G37    29.65S
WHITECLAY        N/A     66  28  24 NW16        N/A
CRESCENT LAKE    N/A     69  20  15 NW17G29     N/A
LISCO            N/A     70   6   8 W24         N/A
BIG SPRINGS      N/A     72  30  21 N16         N/A
LEWELLEN         N/A     77  19  11 NW15        N/A
$$

...OBSERVATIONS IN SOUTHWEST NEBRASKA AND FAR NORTHEAST COLORADO...

CITY           SKY/WX    TMP DP  RH WIND       PRES   REMARKS
WRAY           FAIR      75  31  19 N18G30    29.57F
HOLYOKE        FAIR      73  30  20 N22G31    29.61S
IMPERIAL       SUNNY     78  29  16 N21G35    29.57F
OGALLALA       SUNNY     74  21  14 NW20G29   29.59S
NORTH PLATTE   SUNNY     77  39  25 N13       29.55S
MCCOOK         PTSUNNY   80  42  25 N17       29.51F
LEXINGTON      PTSUNNY   81  45  28 NW9       29.52S
PAXTON           N/A     77  34  21 NW9         N/A
SUTHERLAND       N/A     79  28  15 W16         N/A
GOTHENBURG       N/A     78  45  30 N5          N/A
CALLAWAY         N/A     76  45  32 NW12        N/A
$$

...OBSERVATIONS IN NORTH CENTRAL NEBRASKA...

CITY           SKY/WX    TMP DP  RH WIND       PRES   REMARKS
VALENTINE      MOSUNNY   75  28  17 W22G29    29.55R
THEDFORD       MOSUNNY   76  22  13 NW23G31   29.59R
AINSWORTH      SUNNY     77  32  19 NW15G26   29.55R
O`NEILL        CLOUDY    79  42  26 W12       29.50S
ORD            PTSUNNY   81  48  31 W16G23    29.47F
BROKEN BOW     PTSUNNY   79  40  24 N14       29.53F
BROWNLEE         N/A     76  28  17 W26         N/A
SPRINGVIEW       N/A     78  42  27 W13G21      N/A
DUNNING          N/A     76  24  14 S16         N/A
BREWSTER         N/A     80  32  17 NW18        N/A
ROSE             N/A     81  43  25 W8          N/A
NEWPORT          N/A     79  44  28 W15         N/A
COMSTOCK         N/A     87  45  23 NW15        N/A
CHAMBERS         N/A     81  49  32 W8G17       N/A
EWING            N/A     77  49  37 S12G22      N/A
$$

...SOME WEATHER OBSERVATIONS FROM AROUND THE REGION...

CITY           SKY/WX    TMP DP  RH WIND       PRES   REMARKS
DENVER         CLOUDY    67  27  22 N15       29.60S
LARAMIE        CLOUDY    46  20  35 W28G35    29.79R
CHEYENNE       CLOUDY    54  22  28 NW21G38   29.68F
SCOTTSBLUFF    CLOUDY    63  18  17 W23G36    29.66S
RAPID CITY     PTSUNNY   57  38  48 N33G41    29.63R
PIERRE         CLOUDY    72  44  36 CALM      29.49R
WINNER         FAIR      76  42  29 NW12G23   29.50F
SIOUX FALLS    PTSUNNY   63  40  42 SE26G36   29.64F
OMAHA          LGT RAIN  54  46  74 SE23      29.68F
GRAND ISLAND   LGT RAIN  72  54  53 SE25G35   29.52F
KANSAS CITY    CLOUDY    71  43  36 SE18G28   29.79F
WICHITA        PTSUNNY   84  45  25 S21G33    29.67F
HAYS           CLOUDY   N/A N/A N/A S33G49    29.54F
LIBERAL        PTSUNNY   75  55  50 S18G28    29.55S THUNDER
GOODLAND       MOSUNNY   79  41  25 NE23G31   29.51F
$$



USA.gov is the U.S. government's official web portal to all federal, state and local government web resources and services.